TimeMDT,TemperatureF,Dew PointF,Humidity,Sea Level PressureIn,VisibilityMPH,Wind Direction,Wind SpeedMPH,Gust SpeedMPH,PrecipitationIn,Events,Conditions,WindDirDegrees,DateUTC
12:53 AM,70.0,50.0,49,29.80,10.0,ESE,15.0,-,N/A,,Clear,110,2013-07-12 06:53:00
1:53 AM,66.0,50.0,56,29.83,10.0,Calm,Calm,-,N/A,,Clear,0,2013-07-12 07:53:00
2:53 AM,61.0,48.9,64,29.83,10.0,ESE,8.1,-,N/A,,Clear,110,2013-07-12 08:53:00
3:53 AM,57.0,48.0,72,29.85,10.0,Calm,Calm,-,N/A,,Clear,0,2013-07-12 09:53:00
4:53 AM,55.9,46.9,72,29.85,10.0,SE,5.8,-,N/A,,Clear,140,2013-07-12 10:53:00
5:53 AM,57.9,46.9,67,29.84,10.0,SSE,8.1,-,N/A,,Clear,160,2013-07-12 11:53:00
6:53 AM,59.0,48.9,69,29.84,10.0,SSE,8.1,-,N/A,,Clear,160,2013-07-12 12:53:00
7:53 AM,70.0,52.0,53,29.83,10.0,South,6.9,-,N/A,,Clear,170,2013-07-12 13:53:00
8:53 AM,77.0,48.0,36,29.82,10.0,South,12.7,-,N/A,,Clear,180,2013-07-12 14:53:00
9:53 AM,75.9,57.0,52,29.83,10.0,NNE,5.8,-,N/A,,Clear,20,2013-07-12 15:53:00
10:53 AM,81.0,55.0,41,29.83,10.0,NE,6.9,-,N/A,,Clear,40,2013-07-12 16:53:00
11:53 AM,84.0,51.1,32,29.82,10.0,NE,5.8,-,N/A,,Clear,50,2013-07-12 17:53:00
12:53 PM,82.9,48.9,31,29.81,10.0,Calm,Calm,-,N/A,Thunderstorm,Mostly Cloudy,0,2013-07-12 18:53:00
1:26 PM,77.0,44.6,32,29.97,10.0,SE,24.2,34.5,0.00,Rain-Thunderstorm,Light Rain,130,2013-07-12 19:26:00
1:50 PM,82.4,42.8,25,29.97,10.0,ESE,8.1,-,0.00,,Partly Cloudy,120,2013-07-12 19:50:00
1:53 PM,82.9,42.1,24,29.80,10.0,SE,9.2,-,0.00,,Partly Cloudy,130,2013-07-12 19:53:00
2:53 PM,84.0,46.0,26,29.79,10.0,ENE,12.7,-,N/A,,Clear,70,2013-07-12 20:53:00
3:53 PM,82.0,51.1,34,29.78,10.0,NE,10.4,-,N/A,,Clear,50,2013-07-12 21:53:00
4:53 PM,88.0,52.0,29,29.75,10.0,NE,8.1,-,N/A,,Clear,40,2013-07-12 22:53:00
5:53 PM,89.1,46.0,22,29.72,10.0,ENE,9.2,-,N/A,,Clear,60,2013-07-12 23:53:00
6:53 PM,84.0,51.1,32,29.72,10.0,NE,8.1,-,N/A,,Clear,50,2013-07-13 00:53:00
7:08 PM,82.4,51.8,35,29.88,10.0,East,5.8,-,N/A,,Partly Cloudy,80,2013-07-13 01:08:00
7:53 PM,84.0,51.1,32,29.70,10.0,ENE,8.1,-,N/A,,Clear,70,2013-07-13 01:53:00
8:53 PM,75.0,55.0,50,29.70,10.0,East,3.5,-,N/A,,Clear,90,2013-07-13 02:53:00
9:53 PM,64.0,50.0,60,29.74,10.0,SSE,6.9,-,N/A,,Clear,150,2013-07-13 03:53:00
10:53 PM,68.0,39.9,36,29.73,10.0,South,11.5,-,N/A,,Clear,180,2013-07-13 04:53:00
11:53 PM,68.0,33.1,27,29.73,10.0,South,10.4,-,N/A,,Clear,170,2013-07-13 05:53:00